Theta_e
311 311 312 313 312 312 313 311 311 311 311 313 310 311 310 310 310 310 309 315 315 314 316 316 317 317 317 318 315 315 316 317 343 350 350 348 348 347 349 349 348 349 348 348
311 313 313 313 313 314 314 314 313 312 313 313 311 312 311 312 312 310 317 316 315 315 316 317 318 318 320 319 317 316 316 317 320 343 345 346 344 345 348 348 347 347 347 347
313 315 315 315 315 315 315 314 313 313 313 311 311 313 313 311 313 317 316 316 315 316 315 317 318 318 319 321 321 317 316 316 319 330 342 346 347 346 345 347 347 348 347 346
313 313 316 315 316 315 315 314 313 313 312 311 312 314 313 312 315 317 316 315 315 315 315 316 318 318 318 320 321 323 317 316 319 323 338 342 343 344 342 338 340 341 344 347
315 316 317 315 315 314 314 313 312 312 311 312 312 310 311 315 319 317 317 319 317 316 315 316 316 317 317 318 318 320 323 322 322 323 338 339 339 337 331 332 334 332 337 344
314 315 315 315 315 313 313 311 310 309 309 311 313 314 314 314 319 318 319 318 318 317 316 315 314 313 314 314 314 316 319 322 325 326 326 338 338 337 337 337 337 331 334 337
315 316 315 315 315 312 311 309 309 312 310 313 312 315 314 312 317 318 319 319 316 316 314 312 312 312 312 312 312 313 315 319 322 328 329 330 337 333 332 330 330 334 340 344
318 319 316 316 315 315 313 311 310 314 314 315 314 317 316 314 316 316 317 317 313 312 311 311 310 311 311 311 311 311 313 316 322 323 329 332 335 337 332 328 327 336 337 342
317 318 316 316 314 313 313 310 311 309 313 318 315 315 313 316 317 316 315 313 310 310 309 308 308 309 309 309 309 311 312 314 317 322 325 330 331 337 339 335 338 334 338 339
316 317 315 316 313 312 313 312 313 310 317 322 316 315 315 313 314 313 314 311 309 308 307 307 307 307 307 307 308 309 310 313 315 322 323 335 331 330 333 332 333 335 337 338
315 311 315 315 315 313 313 312 316 317 322 321 319 315 309 312 312 311 312 310 309 307 306 306 306 307 307 307 307 308 310 313 314 322 325 326 337 336 331 337 334 332 335 336
315 311 314 316 314 313 312 313 313 309 315 313 319 318 312 310 313 313 312 310 308 306 305 306 307 307 306 306 306 307 310 311 313 319 324 324 330 331 334 335 333 332 335 337
313 309 308 315 311 311 314 313 313 314 314 319 321 317 312 313 316 313 311 308 307 307 306 308 306 305 305 305 306 307 309 309 311 314 322 326 324 325 329 328 330 333 332 336
317 312 313 316 313 311 315 315 316 317 320 318 318 317 315 315 314 311 309 308 307 307 308 306 305 305 305 305 305 307 307 308 309 311 318 325 326 323 323 325 321 324 333 335
313 314 312 314 314 315 316 317 317 319 318 320 319 318 317 315 311 310 309 308 308 307 306 305 305 304 305 306 306 306 306 307 307 309 311 320 325 325 324 322 323 329 330 336
308 312 314 315 315 316 318 317 317 317 318 319 318 318 313 310 309 309 309 308 306 305 305 305 304 304 305 305 306 306 306 306 306 308 311 314 323 322 323 326 324 330 331 332
309 312 312 314 317 319 319 319 318 317 316 313 317 315 310 311 310 309 307 306 305 305 305 304 304 303 303 304 304 304 304 305 305 306 309 313 322 326 326 327 326 327 326 327
310 311 314 319 319 318 314 316 316 316 315 315 315 311 311 310 308 306 305 304 304 305 305 304 302 302 302 302 303 303 303 304 305 306 308 312 326 326 328 325 322 322 322 321
309 312 314 313 311 312 313 317 315 314 316 312 312 312 311 308 306 306 304 305 305 304 303 301 301 301 302 302 302 303 303 303 304 307 308 312 325 324 324 322 322 322 319 314
307 312 312 308 315 315 309 314 313 313 315 312 311 309 309 307 307 307 304 303 303 302 301 300 301 301 301 302 303 303 304 303 304 306 308 310 323 323 322 321 319 320 318 310
308 306 308 310 315 311 312 311 311 310 313 311 310 309 306 305 305 303 302 302 301 301 300 300 301 302 302 303 305 306 305 303 304 306 308 309 322 322 320 318 315 313 311 309
309 301 310 305 309 309 308 310 314 312 311 309 306 304 304 303 302 301 302 301 300 300 300 300 301 302 304 308 309 308 304 304 304 306 308 314 321 320 316 313 311 310 307 305
306 308 310 310 306 306 308 310 311 310 305 304 302 303 303 302 302 302 301 300 300 300 300 300 301 303 306 307 305 305 304 304 304 307 310 320 319 316 313 312 310 308 306 305
305 305 307 309 307 308 310 310 310 307 302 301 302 302 302 302 301 300 300 300 300 299 300 300 301 306 309 305 305 305 304 304 307 311 317 316 314 313 311 310 309 308 307 306
306 307 308 307 308 310 310 310 307 303 300 301 302 302 302 300 300 300 300 299 298 298 299 301 304 305 308 304 304 304 305 307 310 317 315 312 311 310 308 308 308 308 308 307
306 308 311 312 310 309 310 308 303 301 301 302 301 301 300 299 300 299 298 297 297 298 300 302 303 304 306 305 304 305 306 309 317 315 311 310 306 305 304 304 304 307 307 305
Wind_Speed
4 6 2 5 5 7 5 4 7 5 9 3 7 11 4 9 7 10 8 10 11 10 11 24 25 25 25 24 25 25 34 33 36 32 32 29 32 34 35 34 34 33 31 32
6 2 8 5 5 2 4 3 5 5 5 5 10 19 7 6 6 7 3 8 9 11 14 16 26 20 20 22 22 26 29 37 36 37 36 29 37 36 41 37 35 35 35 33
5 8 3 3 4 5 3 1 5 7 4 6 6 17 6 5 2 4 4 6 7 8 12 13 18 22 23 26 31 22 23 31 40 41 36 28 23 24 29 32 36 32 31 36
5 4 1 1 2 2 4 2 5 10 6 5 3 14 3 1 4 3 6 7 8 8 10 9 11 18 21 24 31 31 19 26 35 42 37 34 30 23 33 36 36 37 38 37
10 3 2 2 3 2 5 5 5 9 5 3 5 3 6 3 2 5 7 4 6 8 9 11 10 17 23 28 29 33 33 18 24 32 36 39 31 36 38 36 31 30 32 35
4 4 3 3 2 4 5 5 6 4 3 1 3 4 5 4 4 5 4 5 5 8 9 9 16 21 25 28 36 35 34 29 26 22 31 30 34 36 32 28 27 29 30 31
6 5 2 4 3 3 10 6 4 6 4 5 3 4 9 6 7 6 4 4 4 1 7 10 13 16 26 31 30 33 34 34 28 18 25 36 35 40 38 36 31 28 26 20
1 6 3 3 2 3 2 5 4 5 3 6 5 6 6 8 5 6 5 1 3 5 7 10 11 16 22 28 33 34 35 35 31 27 17 27 30 30 38 35 32 26 24 25
3 4 4 5 3 4 2 1 3 1 2 4 4 6 8 6 9 7 7 4 5 5 7 8 10 16 24 28 31 31 36 39 37 28 26 18 23 23 24 31 19 19 19 22
4 6 4 1 3 2 3 4 0 2 3 5 4 5 7 6 9 9 7 7 6 6 9 9 10 19 27 30 31 31 35 33 34 27 21 16 19 19 19 18 14 15 17 20
2 3 5 2 4 7 2 2 1 3 3 3 4 6 5 11 13 7 8 7 6 9 8 9 11 28 32 33 29 30 29 27 31 23 13 10 13 17 12 14 10 13 16 18
1 3 4 10 10 4 6 7 6 4 5 5 5 14 12 9 4 6 10 6 7 8 8 10 17 26 27 31 31 27 30 24 27 19 16 5 7 5 9 12 9 7 12 17
2 2 4 10 5 1 3 5 5 3 3 10 8 8 4 8 12 9 8 7 8 10 12 16 17 15 21 23 26 23 26 26 26 26 17 8 6 5 15 9 6 4 10 16
6 5 8 10 15 4 11 12 14 6 4 10 14 22 23 17 11 10 7 8 10 13 16 20 15 13 20 23 22 20 24 23 24 24 19 16 11 15 10 11 5 5 13 16
6 8 7 14 18 15 18 21 18 15 18 11 21 21 20 13 7 6 6 7 13 18 21 18 13 13 17 22 22 17 21 21 23 24 23 18 11 16 17 7 9 9 15 16
1 7 3 10 15 14 17 18 22 20 16 14 12 14 4 4 6 8 13 17 20 22 21 17 14 16 15 21 24 20 20 22 22 24 20 17 16 11 14 18 22 16 17 22
4 3 1 5 4 8 9 11 11 4 3 4 8 15 3 11 12 17 18 21 23 22 20 18 19 18 23 23 25 23 19 21 23 23 23 18 14 13 9 14 16 20 21 26
3 2 3 5 6 5 4 3 2 3 9 10 14 7 8 12 16 19 19 20 20 18 19 23 20 25 28 27 28 27 18 20 18 20 22 17 11 9 15 20 19 19 18 21
3 2 3 2 3 14 7 3 2 5 19 2 2 9 16 13 19 21 11 6 13 19 20 23 29 30 31 30 28 26 21 17 17 16 21 15 14 15 20 25 27 27 21 23
9 2 4 2 4 4 5 3 8 1 10 3 8 13 17 16 16 21 17 21 21 21 25 25 31 32 29 32 29 24 25 16 18 16 21 14 16 16 21 19 19 24 25 24
7 5 3 3 4 7 2 15 6 3 7 14 13 16 21 17 14 22 23 21 20 23 26 29 28 26 31 32 27 23 25 18 23 16 21 15 18 18 22 19 25 31 30 32
3 0 2 3 3 7 3 16 2 7 15 10 14 17 18 22 23 22 20 20 20 21 23 27 22 24 28 27 21 21 21 25 20 16 18 12 19 22 26 28 30 32 28 34
3 5 3 5 6 11 21 14 11 10 7 11 12 19 19 21 22 20 19 19 18 19 23 27 24 27 28 18 19 19 21 21 18 17 15 16 22 25 29 29 29 29 28 30
4 2 4 3 6 10 13 13 14 4 8 13 16 18 19 19 19 20 18 17 16 17 17 25 26 19 18 11 9 14 14 17 19 20 18 22 26 25 24 27 23 29 28 27
5 4 6 8 14 12 14 11 10 7 11 15 14 17 16 17 19 19 17 17 16 18 24 25 21 18 15 7 9 10 12 16 19 20 21 24 26 27 26 24 20 24 22 26
3 6 2 6 13 17 14 12 9 10 15 15 18 17 17 17 18 18 16 15 16 15 24 22 21 19 8 8 9 11 12 10 23 22 23 25 26 27 27 30 33 26 25 24
Wind_Direction
348 47 296 248 211 227 254 230 248 267 262 281 240 270 266 252 292 300 322 332 326 311 297 311 312 307 319 310 290 271 258 237 226 208 205 211 215 226 231 235 235 233 238 235
14 268 237 249 278 262 284 286 314 304 355 318 292 285 267 214 231 257 349 329 324 318 327 326 335 354 2 349 326 293 272 251 227 216 212 208 214 220 223 223 229 233 233 236
164 245 308 314 2 24 329 116 294 271 302 262 284 280 283 265 344 338 339 289 301 306 315 325 327 336 357 2 358 321 282 264 237 222 212 204 205 216 221 223 227 229 231 236
219 289 277 341 131 98 316 285 320 307 326 280 160 290 217 331 320 300 315 326 330 326 326 329 323 335 345 0 7 7 318 272 250 226 209 201 200 204 221 228 231 233 238 233
245 281 296 158 218 221 238 329 264 287 255 334 285 355 263 352 316 307 301 317 322 342 312 316 323 334 354 5 1 8 14 339 267 234 215 208 204 213 221 226 229 233 242 241
256 281 83 180 275 111 265 340 350 44 86 3 263 99 268 278 234 290 295 66 12 335 309 321 335 356 358 2 2 357 355 1 355 266 239 228 206 213 216 222 228 239 245 247
329 312 103 38 4 355 37 41 332 346 360 233 262 320 243 264 254 237 288 39 47 352 314 340 354 353 354 353 353 351 346 341 350 328 250 235 231 219 218 224 228 237 242 234
129 315 331 353 151 272 281 149 161 259 234 268 313 239 253 227 272 290 261 90 31 341 340 342 343 349 351 347 343 342 343 339 336 351 297 244 232 238 224 224 233 238 249 252
316 260 277 304 148 119 274 166 189 200 248 274 243 282 315 271 289 289 338 358 327 328 322 311 322 341 343 337 332 332 332 336 331 325 338 276 247 237 249 227 234 260 260 263
249 288 253 237 20 13 138 180 38 15 288 255 266 266 245 295 280 279 290 288 307 315 325 326 332 332 327 322 322 318 322 328 328 310 328 309 261 242 242 258 251 253 264 266
120 140 271 260 215 223 319 311 131 136 218 279 290 258 218 288 294 274 275 250 288 295 294 302 315 328 319 313 310 307 309 319 327 306 320 310 253 221 206 221 217 249 260 257
275 187 256 249 259 262 182 203 175 129 264 230 270 275 254 251 259 300 286 297 290 277 285 303 324 316 312 305 303 299 301 316 330 308 304 250 219 136 172 188 200 238 272 254
235 295 333 313 352 8 188 194 208 177 162 240 266 272 242 281 297 258 250 272 292 295 299 309 312 305 303 305 308 298 298 315 319 333 303 295 240 235 244 224 203 239 266 250
171 200 195 253 262 231 272 262 269 233 240 273 258 278 284 287 281 284 311 318 302 297 303 307 307 295 297 301 303 308 310 317 310 325 319 294 231 216 239 213 258 271 237 217
161 234 198 251 261 271 268 277 276 257 256 256 275 278 281 294 292 291 283 286 290 293 301 305 298 294 301 301 301 306 306 309 317 319 325 286 282 248 268 251 292 242 226 184
204 275 233 277 268 257 262 268 267 271 271 261 272 281 315 321 297 297 306 307 306 303 303 299 295 301 301 299 297 301 301 303 311 311 309 306 256 244 250 259 238 216 197 176
208 221 50 263 331 319 286 255 257 262 270 197 281 284 4 324 314 311 315 310 302 296 296 299 304 304 299 297 298 294 294 295 300 297 307 309 260 243 235 183 181 181 162 161
167 181 174 282 326 263 248 37 350 275 272 270 278 321 321 306 303 305 298 285 288 297 298 301 300 299 297 296 292 290 283 279 284 285 287 305 226 191 173 155 143 132 133 138
195 164 314 247 245 283 291 45 320 285 299 301 7 316 303 306 306 296 300 279 295 294 292 295 293 291 290 288 284 279 275 259 269 269 269 292 205 168 162 150 148 147 138 120
10 212 189 262 245 279 237 317 293 215 286 149 324 306 306 316 310 305 319 306 299 296 292 291 288 285 278 275 275 267 265 241 249 251 252 280 209 176 166 163 146 144 153 119
313 316 281 285 270 281 73 347 325 32 305 309 314 306 309 300 287 298 302 299 297 293 294 292 286 280 278 274 262 245 245 229 236 241 246 264 205 168 163 150 132 129 128 125
252 216 296 331 279 285 353 348 341 283 298 308 302 304 296 296 298 297 299 297 298 299 301 298 291 287 284 279 255 238 222 224 222 229 235 244 183 154 143 131 125 127 123 116
276 198 209 213 238 280 301 287 290 298 280 300 293 299 298 294 295 298 298 301 302 300 302 300 295 293 289 268 262 231 216 207 207 213 205 183 156 140 139 132 126 122 119 120
284 248 240 301 265 269 293 300 296 270 270 288 288 289 296 296 299 299 302 303 306 302 300 297 296 294 300 264 234 212 198 198 196 188 162 140 131 123 124 126 130 125 129 133
254 298 248 257 281 309 289 289 291 278 282 286 287 300 301 302 303 303 304 307 303 299 297 298 299 299 291 232 208 199 190 192 183 145 137 126 122 117 112 108 117 124 135 143
194 231 268 283 304 289 291 295 295 298 302 311 310 312 311 306 306 312 307 302 299 297 301 302 303 302 254 205 191 186 181 171 151 130 126 121 117 114 111 108 99 109 125 134